tititudorancea.com
Station Historical Data
Daily Summary for January 27, 2018 Units:  Metric    English   Both
« Previous Day
Next Day »
Daily Weekly Monthly Yearly Custom
  High: Low: Average:
Temperature: -17.8 °C 14.6 °C 26.1 °C
Dew Point: -17.8 °C 13.5 °C 16.1 °C
Humidity: Humidity % 26 % 60 %
Wind Speed: 0 km/h 0 km/h 3.4 km/h
Wind Gust: 0 km/h - -
Wind:- - South
Pressure: 0 hPa 1002.9 hPa -
Precipitation: 0 mm    
Historical Graphs
 
 
Ararat weather Find more about Weather in Ararat, AU


 



 


Tabular Data for January 27, 2018
Time Temperature Dew Point Pressure Wind Wind Speed Wind Gust Humidity Rainfall Rate (Hourly)
-17.8 °C -17.8 °C 0 hPa Calm     Humidity % 0 mm
00:04 20.7 °C 15.9 °C 1008 hPa South 9.7 km/h 18.5 km/h 74 % 0 mm
00:09 20.3 °C 15.9 °C 1008 hPa SSW 12.9 km/h 13 km/h 76 % 0 mm
00:14 20.2 °C 16 °C 1008 hPa North 7.2 km/h 14.8 km/h 77 % 0 mm
00:19 19.9 °C 16 °C 1008 hPa SSW 10.6 km/h 13 km/h 78 % 0 mm
00:24 19.8 °C 15.8 °C 1008 hPa SSW 3.9 km/h 9.3 km/h 78 % 0 mm
00:29 19.7 °C 15.9 °C 1008 hPa North 3.5 km/h 5.6 km/h 79 % 0 mm
00:34 19.6 °C 16.1 °C 1008 hPa North 12.6 km/h 14.5 km/h 80 % 0 mm
00:39 19.5 °C 15.9 °C 1008 hPa South 12.9 km/h 14.8 km/h 80 % 0 mm
00:44 19.2 °C 15.9 °C 1008 hPa North 9.8 km/h 20.4 km/h 81 % 0 mm
00:49 18.9 °C 15.8 °C 1008 hPa South 11.9 km/h 16.7 km/h 82 % 0 mm
00:54 18.7 °C 15.8 °C 1008 hPa South 8.2 km/h 11.1 km/h 83 % 0 mm
00:59 18.6 °C 15.7 °C 1008 hPa South 6.6 km/h 14.8 km/h 83 % 0 mm
01:04 18.6 °C 15.8 °C 1008 hPa South 8 km/h 11.3 km/h 84 % 0 mm
01:09 18.4 °C 15.6 °C 1008 hPa South 8.4 km/h 13 km/h 84 % 0 mm
01:14 18.3 °C 15.8 °C 1008 hPa South 3.5 km/h 11.1 km/h 85 % 0 mm
01:19 18.3 °C 15.7 °C 1007.7 hPa SSW 2.7 km/h 9.3 km/h 85 % 0 mm
01:24 18.3 °C 15.9 °C 1008 hPa South 3.4 km/h 5.6 km/h 86 % 0 mm
01:29 18.3 °C 15.9 °C 1008 hPa North 3.9 km/h 6.4 km/h 86 % 0 mm
01:34 18.3 °C 15.9 °C 1008 hPa South 8.5 km/h 9.3 km/h 86 % 0 mm
01:39 18.2 °C 15.8 °C 1008 hPa SSW 3.9 km/h 5.6 km/h 86 % 0 mm
01:44 18.1 °C 15.7 °C 1008 hPa SSW 6.9 km/h 7.4 km/h 86 % 0 mm
01:49 18 °C 15.8 °C 1007.7 hPa North 4.3 km/h 5.6 km/h 87 % 0 mm
01:54 17.9 °C 15.7 °C 1007.7 hPa North 4.7 km/h 5.6 km/h 87 % 0 mm
01:59 17.9 °C 15.7 °C 1007.7 hPa South 4.8 km/h 7.4 km/h 87 % 0 mm
02:04 17.8 °C 15.8 °C 1007.7 hPa North 4.3 km/h 7.4 km/h 88 % 0 mm
02:09 17.8 °C 15.8 °C 1007.7 hPa South 0.5 km/h 3.7 km/h 88 % 0 mm
02:14 17.8 °C 15.8 °C 1007.3 hPa South 1.3 km/h 3.7 km/h 88 % 0 mm
02:19 17.8 °C 15.8 °C 1007.3 hPa Calm   5.6 km/h 88 % 0 mm
02:24 17.8 °C 15.9 °C 1007.3 hPa North 1.6 km/h 5.6 km/h 89 % 0 mm
02:29 17.8 °C 15.9 °C 1007.3 hPa South 3.7 km/h 3.7 km/h 89 % 0 mm
02:34 17.7 °C 15.9 °C 1007.3 hPa North 3.7 km/h 5.6 km/h 89 % 0 mm
02:39 17.7 °C 15.8 °C 1007.3 hPa SSW 0.6 km/h 3.7 km/h 89 % 0 mm
02:45 17.6 °C 15.8 °C 1007.3 hPa Calm     89 % 0 mm
02:50 17.5 °C 15.7 °C 1007.3 hPa Calm     89 % 0 mm
02:55 17.4 °C 15.6 °C 1007.3 hPa Calm     89 % 0 mm
03:00 17.3 °C 15.4 °C 1007.3 hPa Calm     89 % 0 mm
03:05 17.2 °C 15.3 °C 1007 hPa Calm     89 % 0 mm
03:10 17.1 °C 15.3 °C 1007 hPa Calm     89 % 0 mm
03:15 17.1 °C 15.2 °C 1007 hPa Calm     89 % 0 mm
03:20 16.9 °C 15.1 °C 1007 hPa Calm     89 % 0 mm
03:25 16.9 °C 15.2 °C 1007 hPa Calm     90 % 0 mm
03:30 16.8 °C 15 °C 1007 hPa Calm     89 % 0 mm
03:35 16.7 °C 15.1 °C 1007 hPa Calm     90 % 0 mm
03:40 16.6 °C 14.9 °C 1007 hPa Calm     90 % 0 mm
03:45 16.5 °C 14.8 °C 1007 hPa North 1.4 km/h 3.7 km/h 90 % 0 mm
03:50 16.4 °C 14.8 °C 1006.7 hPa SSW 0.5 km/h 3.7 km/h 90 % 0 mm
03:55 16.3 °C 14.7 °C 1006.7 hPa Calm     90 % 0 mm
04:00 16.2 °C 14.8 °C 1006.7 hPa Calm     91 % 0 mm
04:05 16.1 °C 14.4 °C 1006.7 hPa Calm     90 % 0 mm
04:10 16 °C 14.3 °C 1006.7 hPa Calm     90 % 0 mm
04:15 15.9 °C 14.5 °C 1006.7 hPa Calm     91 % 0 mm
04:20 15.8 °C 14.4 °C 1006.7 hPa Calm     91 % 0 mm
04:25 15.8 °C 14.3 °C 1007 hPa Calm     91 % 0 mm
04:30 15.7 °C 14.2 °C 1006.7 hPa Calm     91 % 0 mm
04:35 15.6 °C 14.2 °C 1006.7 hPa Calm     91 % 0 mm
04:40 15.6 °C 14.1 °C 1006.7 hPa South 2.1 km/h 3.7 km/h 91 % 0 mm
04:45 15.6 °C 14.3 °C 1006.7 hPa Calm     92 % 0 mm
04:50 15.5 °C 14.1 °C 1006.7 hPa Calm     91 % 0 mm
04:55 15.4 °C 14 °C 1006.7 hPa Calm     91 % 0 mm
05:00 15.3 °C 14.1 °C 1006.7 hPa Calm     92 % 0 mm
05:01 15.3 °C 14.1 °C 1006.7 hPa Calm     92 % 0 mm
05:06 15.3 °C 14 °C 1006.7 hPa Calm     92 % 0 mm
05:11 15.3 °C 14 °C 1006.7 hPa Calm     92 % 0 mm
05:16 15.3 °C 14 °C 1006.7 hPa Calm     92 % 0 mm
05:21 15.2 °C 13.9 °C 1007 hPa Calm     92 % 0 mm
05:26 15.2 °C 13.9 °C 1007 hPa Calm     92 % 0 mm
05:31 15.1 °C 13.8 °C 1007 hPa South 0.2 km/h 1.9 km/h 92 % 0 mm
05:36 15.1 °C 14 °C 1007 hPa Calm     93 % 0 mm
05:41 15.1 °C 14 °C 1007 hPa Calm     93 % 0 mm
05:46 15.1 °C 13.9 °C 1007 hPa Calm     93 % 0 mm
05:51 15.1 °C 13.9 °C 1007 hPa Calm     93 % 0 mm
05:56 15 °C 13.9 °C 1007 hPa Calm     93 % 0 mm
06:01 14.9 °C 13.8 °C 1007 hPa Calm     93 % 0 mm
06:06 14.8 °C 13.7 °C 1007 hPa Calm     93 % 0 mm
06:11 14.8 °C 13.7 °C 1007 hPa Calm     93 % 0 mm
06:16 14.8 °C 13.7 °C 1007 hPa Calm     93 % 0 mm
06:21 14.8 °C 13.7 °C 1007.3 hPa Calm     93 % 0 mm
06:26 14.7 °C 13.6 °C 1007.3 hPa Calm     93 % 0 mm
06:31 14.7 °C 13.6 °C 1007.3 hPa Calm     93 % 0 mm
06:36 14.6 °C 13.5 °C 1007.3 hPa Calm     93 % 0 mm
06:41 14.6 °C 13.5 °C 1007.3 hPa Calm     93 % 0 mm
06:46 14.6 °C 13.5 °C 1007.3 hPa Calm     93 % 0 mm
06:51 14.6 °C 13.5 °C 1007.3 hPa Calm     93 % 0 mm
06:56 14.6 °C 13.7 °C 1007.7 hPa Calm     94 % 0 mm
07:01 14.6 °C 13.6 °C 1007.7 hPa Calm     94 % 0 mm
07:06 14.6 °C 13.6 °C 1007.7 hPa Calm     94 % 0 mm
07:11 14.6 °C 13.6 °C 1007.7 hPa Calm     94 % 0 mm
07:16 14.6 °C 13.7 °C 1007.7 hPa Calm     94 % 0 mm
07:22 14.6 °C 13.7 °C 1007.7 hPa Calm     94 % 0 mm
07:27 14.7 °C 13.8 °C 1007.7 hPa Calm     94 % 0 mm
07:32 14.8 °C 13.8 °C 1008 hPa Calm     94 % 0 mm
07:37 14.9 °C 14.1 °C 1008 hPa Calm     95 % 0 mm
07:42 14.9 °C 14.2 °C 1008 hPa Calm     95 % 0 mm
07:47 15.1 °C 14.3 °C 1008 hPa Calm     95 % 0 mm
07:52 15.3 °C 14.5 °C 1008.4 hPa North 1.9 km/h 3.7 km/h 95 % 0 mm
07:57 15.4 °C 14.7 °C 1008.4 hPa South 0.2 km/h   95 % 0 mm
08:02 15.8 °C 15.2 °C 1008 hPa Calm     96 % 0 mm
08:07 16.2 °C 15.6 °C 1008 hPa Calm     96 % 0 mm
08:12 16.5 °C 15.7 °C 1008.4 hPa Calm     95 % 0 mm
08:17 16.6 °C 15.8 °C 1008.4 hPa Calm     95 % 0 mm
08:22 16.7 °C 15.9 °C 1008.4 hPa Calm     95 % 0 mm
08:27 17.3 °C 16.6 °C 1008.4 hPa Calm     96 % 0 mm
08:32 17.7 °C 16.9 °C 1008.4 hPa Calm     95 % 0 mm
08:37 18.2 °C 17.4 °C 1008.4 hPa Calm     95 % 0 mm
08:42 18.8 °C 17.8 °C 1008.4 hPa Calm     94 % 0 mm
08:47 19.7 °C 18.4 °C 1008.7 hPa Calm     92 % 0 mm
08:52 20.4 °C 18.4 °C 1008.4 hPa Calm     88 % 0 mm
08:57 21.1 °C 18.2 °C 1008.4 hPa Calm     84 % 0 mm
09:02 21.8 °C 18.4 °C 1008.4 hPa Calm     81 % 0 mm
09:07 22.6 °C 18.1 °C 1008.4 hPa South 1.9 km/h 3.7 km/h 76 % 0 mm
09:12 23.2 °C 18.3 °C 1008.4 hPa SSW 1.8 km/h 4.8 km/h 74 % 0 mm
09:17 23.8 °C 18.4 °C 1008.4 hPa South 1 km/h 3.7 km/h 72 % 0 mm
09:22 24.1 °C 18.2 °C 1008.4 hPa SSW 0.8 km/h 3.7 km/h 70 % 0 mm
09:27 24.4 °C 18.3 °C 1008.4 hPa South 3.2 km/h 5.6 km/h 69 % 0 mm
09:32 24.7 °C 18.4 °C 1008.4 hPa South 4.7 km/h 5.6 km/h 68 % 0 mm
09:37 25.1 °C 18.5 °C 1008.4 hPa South 1.1 km/h 5.6 km/h 67 % 0 mm
09:42 25.6 °C 18.8 °C 1008 hPa SSW 0.3 km/h 3.7 km/h 66 % 0 mm
09:47 26.1 °C 18.8 °C 1008 hPa NE 4 km/h 9.3 km/h 64 % 0 mm
09:52 26.4 °C 18.6 °C 1008 hPa NE 4.8 km/h 11.1 km/h 62 % 0 mm
09:57 26.7 °C 19.1 °C 1008 hPa NE 5.8 km/h 8 km/h 63 % 0 mm
10:02 26.8 °C 18.9 °C 1008 hPa NE 6.3 km/h 13 km/h 62 % 0 mm
10:07 27.2 °C 18.7 °C 1008 hPa NNE 11.9 km/h 16.7 km/h 60 % 0 mm
10:12 27.3 °C 19.1 °C 1008 hPa NE 9.8 km/h 14.8 km/h 61 % 0 mm
10:17 27.3 °C 18.6 °C 1008 hPa NNE 7.6 km/h 13 km/h 59 % 0 mm
10:22 27.4 °C 19 °C 1008 hPa North 9.3 km/h 16.7 km/h 60 % 0 mm
10:27 27.7 °C 19 °C 1008 hPa North 4.3 km/h 9.3 km/h 59 % 0 mm
10:32 28.1 °C 19.1 °C 1007.7 hPa North 8.9 km/h 11.1 km/h 58 % 0 mm
10:37 28.2 °C 18.9 °C 1007.7 hPa NNE 5.6 km/h 9.3 km/h 57 % 0 mm
10:42 28.4 °C 18.8 °C 1007.7 hPa NNE 6.9 km/h 9.3 km/h 56 % 0 mm
10:47 28.9 °C 19 °C 1007.7 hPa NNE 7.9 km/h 11.1 km/h 55 % 0 mm
10:52 29.1 °C 18.5 °C 1007.7 hPa NNE 6.3 km/h 13 km/h 53 % 0 mm
10:57 29.5 °C 19.2 °C 1007.7 hPa NNE 4.7 km/h 5.6 km/h 54 % 0 mm
11:02 29.7 °C 18.8 °C 1007.7 hPa North 5.5 km/h 11.1 km/h 52 % 0 mm
11:07 29.6 °C 18.7 °C 1007.7 hPa North 2.7 km/h 5.6 km/h 52 % 0 mm
11:12 29.7 °C 18.8 °C 1007.7 hPa North 4.3 km/h 7.4 km/h 52 % 0 mm
11:17 30 °C 19.1 °C 1007.3 hPa North 1.8 km/h 5.6 km/h 52 % 0 mm
11:22 30.5 °C 18.9 °C 1007.3 hPa North 5.1 km/h 7.4 km/h 50 % 0 mm
11:27 30.7 °C 18.8 °C 1007.3 hPa North 5.5 km/h 13 km/h 49 % 0 mm
11:32 30.4 °C 18.5 °C 1007.3 hPa North 3.4 km/h 7.4 km/h 49 % 0 mm
11:37 30.4 °C 18.8 °C 1007.3 hPa North 8.5 km/h 11.3 km/h 50 % 0 mm
11:42 30.3 °C 18.4 °C 1007.3 hPa NNW 9.2 km/h 13 km/h 49 % 0 mm
11:47 30.4 °C 18.5 °C 1007.3 hPa NW 6.9 km/h 7.4 km/h 49 % 0 mm
11:52 30.6 °C 17.9 °C 1007.3 hPa NW 8.7 km/h 11.1 km/h 47 % 0 mm
11:57 30.7 °C 18.1 °C 1007.3 hPa North 3.7 km/h 9.3 km/h 47 % 0 mm
12:02 30.7 °C 17.4 °C 1007.3 hPa North 3.9 km/h 5.6 km/h 45 % 0 mm
12:07 30.7 °C 17.7 °C 1007.3 hPa North 0.8 km/h 1.9 km/h 46 % 0 mm
12:12 30.9 °C 17.6 °C 1007 hPa North 8.5 km/h 11.1 km/h 45 % 0 mm
12:17 31.1 °C 17.7 °C 1007 hPa North 3.1 km/h 4.8 km/h 45 % 0 mm
12:22 31.7 °C 16.8 °C 1007 hPa North 5.1 km/h 7.4 km/h 41 % 0 mm
12:27 31.8 °C 16.9 °C 1007 hPa North 1.9 km/h 3.7 km/h 41 % 0 mm
12:32 32.6 °C 17.6 °C 1007 hPa North 4.2 km/h 5.6 km/h 41 % 0 mm
12:37 32.3 °C 16.6 °C 1007 hPa NNW 9.3 km/h 11.1 km/h 39 % 0 mm
12:42 32.1 °C 16.8 °C 1007 hPa NNW 5.8 km/h 9.7 km/h 40 % 0 mm
12:47 32.5 °C 16.8 °C 1007 hPa North 3.2 km/h 5.6 km/h 39 % 0 mm
12:52 32.8 °C 15.7 °C 1006.7 hPa NNW 2.9 km/h 5.6 km/h 36 % 0 mm
12:57 33.1 °C 16.4 °C 1006.7 hPa North 7.9 km/h 11.1 km/h 37 % 0 mm
13:02 32.8 °C 16.2 °C 1006.7 hPa North 7.9 km/h 9.7 km/h 37 % 0 mm
13:07 33.2 °C 16.5 °C 1006.7 hPa West 7.6 km/h 12.9 km/h 37 % 0 mm
13:12 32.8 °C 16.7 °C 1006.7 hPa SSW 2.7 km/h 8 km/h 38 % 0 mm
13:17 32.8 °C 17.1 °C 1006.7 hPa SSW 1.4 km/h 5.6 km/h 39 % 0 mm
13:22 33.6 °C 16.9 °C 1006.7 hPa SSW 3.1 km/h 13 km/h 37 % 0 mm
13:27 33.9 °C 16.7 °C 1006.3 hPa West 9.2 km/h 11.3 km/h 36 % 0 mm
13:32 33.5 °C 16.8 °C 1006.3 hPa North 9 km/h 14.8 km/h 37 % 0 mm
13:37 33.6 °C 16.9 °C 1006.3 hPa WNW 10.9 km/h 14.5 km/h 37 % 0 mm
13:42 33.4 °C 16.3 °C 1006.3 hPa WNW 8.7 km/h 18.5 km/h 36 % 0 mm
13:47 33.6 °C 16.5 °C 1006 hPa North 6.6 km/h 13 km/h 36 % 0 mm
13:52 33.1 °C 16.4 °C 1006 hPa North 12.7 km/h 18.5 km/h 37 % 0 mm
13:57 32.5 °C 16.8 °C 1006 hPa WNW 4.3 km/h 11.1 km/h 39 % 0 mm
14:02 32.9 °C 16.7 °C 1006 hPa WNW 4.7 km/h 9.7 km/h 38 % 0 mm
14:07 33.3 °C 16.2 °C 1006 hPa WNW 8 km/h 11.1 km/h 36 % 0 mm
14:12 33.7 °C 16.1 °C 1006 hPa North 1.6 km/h 5.6 km/h 35 % 0 mm
14:17 34.1 °C 16.5 °C 1005.6 hPa WNW 6.3 km/h 9.7 km/h 35 % 0 mm
14:23 34.4 °C 16.8 °C 1005.6 hPa NW 7.2 km/h 11.3 km/h 35 % 0 mm
14:28 34.2 °C 16.6 °C 1005.6 hPa NNW 10.5 km/h 14.8 km/h 35 % 0 mm
14:33 34.2 °C 16.1 °C 1005.6 hPa NNW 4.7 km/h 9.3 km/h 34 % 0 mm
14:38 34.4 °C 15.8 °C 1005.6 hPa NNW 4 km/h 9.3 km/h 33 % 0 mm
14:43 34.7 °C 16.6 °C 1005.6 hPa NW 5.8 km/h 7.4 km/h 34 % 0 mm
14:48 34.8 °C 15.7 °C 1005.3 hPa NW 4.5 km/h 5.6 km/h 32 % 0 mm
14:53 34.6 °C 16 °C 1005.3 hPa North 7.4 km/h 9.3 km/h 33 % 0 mm
14:58 34.8 °C 15.7 °C 1005.3 hPa NW 9.2 km/h 11.1 km/h 32 % 0 mm
15:03 34.7 °C 15.6 °C 1005.3 hPa North 2.4 km/h 4.8 km/h 32 % 0 mm
15:08 34.8 °C 14.7 °C 1005 hPa NE 6.6 km/h 12.9 km/h 30 % 0 mm
15:13 35.1 °C 14.9 °C 1005 hPa East 7.6 km/h 16.7 km/h 30 % 0 mm
15:18 35.2 °C 14.4 °C 1005 hPa East 4 km/h 5.6 km/h 29 % 0 mm
15:23 35.6 °C 14.8 °C 1004.6 hPa ENE 6 km/h 8 km/h 29 % 0 mm
15:28 35.6 °C 14.8 °C 1004.6 hPa ENE 3.1 km/h 5.6 km/h 29 % 0 mm
15:33 35.9 °C 15.1 °C 1004.6 hPa ENE 6.1 km/h 9.3 km/h 29 % 0 mm
15:38 35.4 °C 14.7 °C 1004.6 hPa East 1.9 km/h 5.6 km/h 29 % 0 mm
15:43 35.7 °C 14.3 °C 1004.3 hPa North 10.9 km/h 18.5 km/h 28 % 0 mm
15:48 35.4 °C 14.1 °C 1004.6 hPa NNE 4 km/h 7.4 km/h 28 % 0 mm
15:53 35.5 °C 14.7 °C 1004.3 hPa North 6.4 km/h 11.1 km/h 29 % 0 mm
15:58 35.7 °C 14.3 °C 1004.3 hPa North 5 km/h 7.4 km/h 28 % 0 mm
16:03 35.7 °C 14.9 °C 1004.3 hPa ENE 7.2 km/h 9.3 km/h 29 % 0 mm
16:08 36.1 °C 14.7 °C 1004.3 hPa NE 7.9 km/h 9.3 km/h 28 % 0 mm
16:13 36.5 °C 14.5 °C 1004.3 hPa NE 7.2 km/h 9.3 km/h 27 % 0 mm
16:18 36.5 °C 14.5 °C 1004.3 hPa NE 4.8 km/h 7.4 km/h 27 % 0 mm
16:23 36.7 °C 14.6 °C 1003.9 hPa NE 4.7 km/h 9.3 km/h 27 % 0 mm
16:28 36.9 °C 14.8 °C 1003.9 hPa NE 4.3 km/h 5.6 km/h 27 % 0 mm
16:33 36.9 °C 14.8 °C 1003.9 hPa NE 0.5 km/h 3.7 km/h 27 % 0 mm
16:38 37.1 °C 14.4 °C 1003.9 hPa NE 4 km/h 5.6 km/h 26 % 0 mm
16:43 37 °C 14.3 °C 1003.9 hPa NE 4.5 km/h 9.3 km/h 26 % 0 mm
16:48 36.6 °C 14.6 °C 1003.9 hPa East 9.7 km/h 11.1 km/h 27 % 0 mm
16:53 36.5 °C 15.1 °C 1003.9 hPa ESE 10 km/h 13 km/h 28 % 0 mm
16:58 36.4 °C 14.4 °C 1003.9 hPa ESE 13.2 km/h 14.8 km/h 27 % 0 mm
17:03 36.1 °C 14.2 °C 1003.9 hPa ESE 3.7 km/h 7.4 km/h 27 % 0 mm
17:08 35.9 °C 14.6 °C 1003.9 hPa ESE 8.9 km/h 14.8 km/h 28 % 0 mm
17:13 35.8 °C 14.4 °C 1003.9 hPa ESE 3.2 km/h 3.7 km/h 28 % 0 mm
17:18 35.9 °C 14.6 °C 1003.9 hPa ESE 3.1 km/h 5.6 km/h 28 % 0 mm
17:23 36.3 °C 14.9 °C 1003.9 hPa ESE 1.8 km/h 1.9 km/h 28 % 0 mm
17:28 36.6 °C 14.6 °C 1003.6 hPa ESE 0.5 km/h 7.4 km/h 27 % 0 mm
17:33 36.9 °C 14.2 °C 1003.6 hPa ESE 5.1 km/h 7.4 km/h 26 % 0 mm
17:38 37.1 °C 14.4 °C 1003.3 hPa ESE 4.2 km/h 11.3 km/h 26 % 0 mm
17:43 37.1 °C 14.4 °C 1003.6 hPa ESE 1 km/h 5.6 km/h 26 % 0 mm
17:48 36.7 °C 14.6 °C 1003.6 hPa ESE 10 km/h 11.1 km/h 27 % 0 mm
17:53 35.8 °C 13.9 °C 1003.6 hPa ESE 1.1 km/h 7.4 km/h 27 % 0 mm
17:58 35.7 °C 14.4 °C 1003.3 hPa ESE 0.5 km/h 5.6 km/h 28 % 0 mm
18:03 35.6 °C 14.8 °C 1003.3 hPa SE 4.7 km/h 9.3 km/h 29 % 0 mm
18:08 35.7 °C 14.4 °C 1003.3 hPa ESE 3.2 km/h 7.4 km/h 28 % 0 mm
18:13 35.9 °C 14.6 °C 1003.3 hPa ESE 0.8 km/h 1.9 km/h 28 % 0 mm
18:18 35.9 °C 14.6 °C 1003.3 hPa ESE 9.5 km/h 9.7 km/h 28 % 0 mm
18:23 35.7 °C 14.3 °C 1003.3 hPa ESE 4.8 km/h 7.4 km/h 28 % 0 mm
18:28 35.3 °C 14.6 °C 1003.3 hPa ESE 8 km/h 8 km/h 29 % 0 mm
18:33 35.2 °C 14.5 °C 1003.3 hPa ESE 2.4 km/h 5.6 km/h 29 % 0 mm
18:38 35.2 °C 14.5 °C 1003.3 hPa ESE 1.8 km/h 5.6 km/h 29 % 0 mm
18:43 35.6 °C 14.8 °C 1003.3 hPa Calm   1.9 km/h 29 % 0 mm
18:48 35.7 °C 14.9 °C 1003.3 hPa ESE 9.7 km/h 14.8 km/h 29 % 0 mm
18:53 35.6 °C 15.3 °C 1003.3 hPa ESE 9.8 km/h 11.1 km/h 30 % 0 mm
18:58 35.7 °C 15.4 °C 1003.3 hPa SE 3.9 km/h 7.4 km/h 30 % 0 mm
19:03 35.7 °C 15.4 °C 1003.3 hPa ESE 8.7 km/h 13 km/h 30 % 0 mm
19:08 35.6 °C 14.8 °C 1003.3 hPa Calm   5.6 km/h 29 % 0 mm
19:13 35.6 °C 14.8 °C 1002.9 hPa ESE 6 km/h 9.3 km/h 29 % 0 mm
19:18 35.8 °C 15.5 °C 1002.9 hPa ESE 3.2 km/h 5.6 km/h 30 % 0 mm
19:23 35.9 °C 15.1 °C 1003.3 hPa ESE 7.9 km/h 9.7 km/h 29 % 0 mm
19:28 35.6 °C 14.8 °C 1003.3 hPa ESE 6 km/h 9.3 km/h 29 % 0 mm
19:33 35.4 °C 14.7 °C 1003.3 hPa ESE 5 km/h 9.7 km/h 29 % 0 mm
19:38 35.2 °C 14.4 °C 1003.3 hPa ESE 9.5 km/h 14.8 km/h 29 % 0 mm
19:43 35.1 °C 14.4 °C 1003.3 hPa ESE 3.7 km/h 6.4 km/h 29 % 0 mm
19:48 35.1 °C 14.3 °C 1003.3 hPa ESE 8 km/h 9.3 km/h 29 % 0 mm
19:53 34.8 °C 14.7 °C 1003.3 hPa ESE 2.6 km/h 5.6 km/h 30 % 0 mm
19:58 34.7 °C 15.1 °C 1003.6 hPa ESE 6 km/h 7.4 km/h 31 % 0 mm
20:03 34.7 °C 15.1 °C 1003.6 hPa ESE 3.4 km/h 5.6 km/h 31 % 0 mm
20:08 34.6 °C 15.4 °C 1003.6 hPa ESE 3.2 km/h 5.6 km/h 32 % 0 mm
20:13 34.3 °C 15.3 °C 1003.6 hPa ESE 3.7 km/h 5.6 km/h 32 % 0 mm
20:18 34.1 °C 15.1 °C 1003.9 hPa ESE 1.9 km/h 5.6 km/h 32 % 0 mm
20:23 33.9 °C 14.9 °C 1003.9 hPa ESE 3.4 km/h 6.4 km/h 32 % 0 mm
20:28 33.6 °C 16.9 °C 1003.9 hPa SE 12.9 km/h 20.9 km/h 37 % 0 mm
20:33 33.1 °C 17.7 °C 1003.9 hPa SE 8 km/h 11.3 km/h 40 % 0 mm
20:38 32.7 °C 18.1 °C 1003.9 hPa SE 9.2 km/h 14.8 km/h 42 % 0 mm
20:43 32.3 °C 18.5 °C 1003.9 hPa SE 5.5 km/h 9.3 km/h 44 % 0 mm
20:48 32 °C 18.6 °C 1003.9 hPa SE 3.9 km/h 7.4 km/h 45 % 0 mm
20:53 31.7 °C 18.7 °C 1003.9 hPa SE 5.3 km/h 7.4 km/h 46 % 0 mm
20:58 31.5 °C 18.8 °C 1004.3 hPa SE 4.3 km/h 9.3 km/h 47 % 0 mm
21:03 31.3 °C 18.9 °C 1004.3 hPa SE 4.8 km/h 9.3 km/h 48 % 0 mm
21:08 31.1 °C 18.8 °C 1004.3 hPa SE 2.4 km/h 5.6 km/h 48 % 0 mm
21:13 30.9 °C 19 °C 1004.3 hPa SE 2.4 km/h 5.6 km/h 49 % 0 mm
21:18 30.8 °C 18.8 °C 1004.3 hPa SE 1.4 km/h 3.7 km/h 49 % 0 mm
21:23 30.6 °C 19 °C 1004.3 hPa Calm   1.9 km/h 50 % 0 mm
21:28 30.5 °C 18.9 °C 1004.3 hPa SE 1.9 km/h 3.7 km/h 50 % 0 mm
21:33 30.3 °C 19 °C 1004.3 hPa Calm     51 % 0 mm
21:38 30.1 °C 19.2 °C 1004.3 hPa Calm     52 % 0 mm
21:43 29.8 °C 18.9 °C 1004.3 hPa SE 0.2 km/h 1.6 km/h 52 % 0 mm
21:48 29.7 °C 19.1 °C 1004.3 hPa Calm     53 % 0 mm
21:53 29.3 °C 19 °C 1004.3 hPa SE 1.8 km/h 5.6 km/h 54 % 0 mm
21:58 29 °C 19.1 °C 1004.3 hPa SE 3.1 km/h 5.6 km/h 55 % 0 mm
22:03 28.7 °C 19.1 °C 1004.6 hPa SE 1 km/h 1.9 km/h 56 % 0 mm
22:08 28.6 °C 18.9 °C 1004.6 hPa SE 3.7 km/h 5.6 km/h 56 % 0 mm
22:13 28.4 °C 19.1 °C 1004.6 hPa SE 3.4 km/h 5.6 km/h 57 % 0 mm
22:18 28.3 °C 18.9 °C 1004.6 hPa Calm     57 % 0 mm
22:23 28.1 °C 19.1 °C 1004.6 hPa SE 0.5 km/h 1.9 km/h 58 % 0 mm
22:28 27.9 °C 18.9 °C 1005 hPa Calm     58 % 0 mm
22:33 27.7 °C 19 °C 1005 hPa Calm     59 % 0 mm
22:38 27.4 °C 19 °C 1005 hPa Calm     60 % 0 mm
22:43 27.2 °C 19 °C 1005 hPa Calm     61 % 0 mm
22:48 26.9 °C 18.8 °C 1005 hPa Calm     61 % 0 mm
22:53 26.8 °C 18.9 °C 1005 hPa Calm     62 % 0 mm
22:58 26.6 °C 19 °C 1005 hPa Calm     63 % 0 mm
23:03 26.4 °C 18.8 °C 1004.6 hPa Calm     63 % 0 mm
23:08 26.3 °C 18.9 °C 1005 hPa Calm     64 % 0 mm
23:13 26.3 °C 18.9 °C 1005 hPa Calm     64 % 0 mm
23:18 26.3 °C 18.9 °C 1005 hPa Calm     64 % 0 mm
23:23 26.2 °C 18.9 °C 1004.6 hPa Calm     64 % 0 mm
23:28 26.1 °C 18.8 °C 1004.6 hPa Calm     64 % 0 mm
23:33 26 °C 18.9 °C 1004.6 hPa Calm     65 % 0 mm
23:40 25.8 °C 18.7 °C 1005 hPa Calm     65 % 0 mm
23:45 25.6 °C 18.8 °C 1005 hPa Calm     66 % 0 mm
23:50 25.4 °C 18.6 °C 1005 hPa Calm     66 % 0 mm
23:55 25.3 °C 18.8 °C 1005 hPa Calm     67 % 0 mm
Ararat Weather
Compliments of Weather Underground - 2.5 mb
Click here to send mail.


ABOUT

Live weather data from Ararat, Victoria, Australia, 3377
Data uploaded from Cumulus every 5 minutes to Weather Underground.
This site then downloads the raw data for formatting and display.
Metric and imperial data can be displayed. Graphs and historical data available.
Includes Sun and Moon times and rain image live from BOM.

Check out Ararat Weather on Facebook, Twitter and Google +

Help support ongoing costs by checking out the ads





Follow @AraratWeather